"Time","Value","Approval","myLocation"
"2000-08-03 12:00",1.861,"Approved","OW347"
"2000-09-01 12:00",1.987,"Approved","OW347"
"2000-09-30 12:00",2.047,"Approved","OW347"
"2000-11-04 12:00",1.607,"Approved","OW347"
"2000-12-02 12:00",2.057,"Approved","OW347"
"2001-01-04 12:00",2.107,"Approved","OW347"
"2001-01-30 12:00",2.047,"Approved","OW347"
"2001-03-01 12:00",2.077,"Approved","OW347"
"2001-04-01 12:00",1.697,"Approved","OW347"
"2001-05-01 12:00",1.617,"Approved","OW347"
"2001-06-02 12:00",1.727,"Approved","OW347"
"2001-07-07 12:00",2.167,"Approved","OW347"
"2001-08-03 12:00",2.047,"Approved","OW347"
"2001-09-02 12:00",2.207,"Approved","OW347"
"2001-10-01 12:00",2.257,"Approved","OW347"
"2001-11-01 12:00",2.167,"Approved","OW347"
"2001-12-01 12:00",2.177,"Approved","OW347"
"2002-01-02 12:00",2.227,"Approved","OW347"
"2002-02-02 12:00",2.257,"Approved","OW347"
"2002-03-02 12:00",2.167,"Approved","OW347"
"2002-04-01 12:00",1.957,"Approved","OW347"
"2002-05-01 12:00",1.507,"Approved","OW347"
"2002-06-02 12:00",1.277,"Approved","OW347"
"2002-07-02 12:00",1.567,"Approved","OW347"
"2002-08-01 12:00",1.847,"Approved","OW347"
"2002-09-02 12:00",2.207,"Approved","OW347"
"2002-10-02 12:00",2.297,"Approved","OW347"
"2002-11-03 12:00",2.227,"Approved","OW347"
"2002-12-01 12:00",2.227,"Approved","OW347"
"2003-01-01 12:00",2.187,"Approved","OW347"
"2003-02-02 12:00",2.267,"Approved","OW347"
"2003-03-02 12:00",2.377,"Approved","OW347"
"2003-04-03 12:00",1.967,"Approved","OW347"
"2003-05-03 12:00",1.807,"Approved","OW347"
"2003-06-01 12:00",1.957,"Approved","OW347"
"2003-07-01 12:00",2.267,"Approved","OW347"
"2003-08-03 12:00",2.577,"Approved","OW347"
"2003-09-01 12:00",2.777,"Approved","OW347"
"2003-09-24 12:00",2.807,"Approved","OW347"
"2003-10-03 12:00",2.817,"Approved","OW347"
"2003-11-01 12:00",2.707,"Approved","OW347"
"2003-12-01 12:00",2.657,"Approved","OW347"
"2004-01-01 12:00",2.647,"Approved","OW347"
"2004-02-07 12:00",2.477,"Approved","OW347"
"2004-03-06 12:00",2.367,"Approved","OW347"
"2004-04-01 12:00",2.037,"Approved","OW347"
"2004-05-01 12:00",1.967,"Approved","OW347"
"2004-06-01 12:00",2.057,"Approved","OW347"
"2004-06-22 11:00",2.057,"Approved","OW347"
"2004-06-22 12:00",2.058,"Approved","OW347"
"2004-06-22 13:00",2.059,"Approved","OW347"
"2004-06-22 14:00",2.062,"Approved","OW347"
"2004-06-22 15:00",2.065,"Approved","OW347"
"2004-06-22 16:00",2.068,"Approved","OW347"
"2004-06-22 17:00",2.071,"Approved","OW347"
"2004-06-22 18:00",2.073,"Approved","OW347"
"2004-06-22 19:00",2.075,"Approved","OW347"
"2004-06-22 20:00",2.075,"Approved","OW347"
"2004-06-22 21:00",2.076,"Approved","OW347"
"2004-06-22 22:00",2.076,"Approved","OW347"
"2004-06-22 23:00",2.076,"Approved","OW347"
"2004-06-23 00:00",2.076,"Approved","OW347"
"2004-06-23 01:00",2.076,"Approved","OW347"
"2004-06-23 02:00",2.076,"Approved","OW347"
"2004-06-23 03:00",2.075,"Approved","OW347"
"2004-06-23 04:00",2.075,"Approved","OW347"
"2004-06-23 05:00",2.075,"Approved","OW347"
"2004-06-23 06:00",2.074,"Approved","OW347"
"2004-06-23 07:00",2.074,"Approved","OW347"
"2004-06-23 08:00",2.072,"Approved","OW347"
"2004-06-23 09:00",2.072,"Approved","OW347"
"2004-06-23 10:00",2.072,"Approved","OW347"
"2004-06-23 11:00",2.072,"Approved","OW347"
"2004-06-23 12:00",2.072,"Approved","OW347"
"2004-06-23 13:00",2.073,"Approved","OW347"
"2004-06-23 14:00",2.076,"Approved","OW347"
"2004-06-23 15:00",2.078,"Approved","OW347"
"2004-06-23 16:00",2.081,"Approved","OW347"
"2004-06-23 17:00",2.084,"Approved","OW347"
"2004-06-23 18:00",2.088,"Approved","OW347"
"2004-06-23 19:00",2.091,"Approved","OW347"
"2004-06-23 20:00",2.092,"Approved","OW347"
"2004-06-23 21:00",2.092,"Approved","OW347"
"2004-06-23 22:00",2.094,"Approved","OW347"
"2004-06-23 23:00",2.094,"Approved","OW347"
"2004-06-24 00:00",2.094,"Approved","OW347"
"2004-06-24 01:00",2.094,"Approved","OW347"
"2004-06-24 02:00",2.094,"Approved","OW347"
"2004-06-24 03:00",2.094,"Approved","OW347"
"2004-06-24 04:00",2.093,"Approved","OW347"
"2004-06-24 05:00",2.093,"Approved","OW347"
"2004-06-24 06:00",2.091,"Approved","OW347"
"2004-06-24 07:00",2.091,"Approved","OW347"
"2004-06-24 08:00",2.091,"Approved","OW347"
"2004-06-24 09:00",2.091,"Approved","OW347"
"2004-06-24 10:00",2.09,"Approved","OW347"
"2004-06-24 11:00",2.09,"Approved","OW347"
"2004-06-24 12:00",2.09,"Approved","OW347"
"2004-06-24 13:00",2.091,"Approved","OW347"
"2004-06-24 14:00",2.092,"Approved","OW347"
"2004-06-24 15:00",2.095,"Approved","OW347"
"2004-06-24 16:00",2.099,"Approved","OW347"
"2004-06-24 17:00",2.103,"Approved","OW347"
"2004-06-24 18:00",2.104,"Approved","OW347"
"2004-06-24 19:00",2.109,"Approved","OW347"
"2004-06-24 20:00",2.11,"Approved","OW347"
"2004-06-24 21:00",2.11,"Approved","OW347"
"2004-06-24 22:00",2.11,"Approved","OW347"
"2004-06-24 23:00",2.11,"Approved","OW347"
"2004-06-25 00:00",2.11,"Approved","OW347"
"2004-06-25 01:00",2.11,"Approved","OW347"
"2004-06-25 02:00",2.11,"Approved","OW347"
"2004-06-25 03:00",2.109,"Approved","OW347"
"2004-06-25 04:00",2.108,"Approved","OW347"
"2004-06-25 05:00",2.108,"Approved","OW347"
"2004-06-25 06:00",2.107,"Approved","OW347"
"2004-06-25 07:00",2.106,"Approved","OW347"
"2004-06-25 08:00",2.106,"Approved","OW347"
"2004-06-25 09:00",2.106,"Approved","OW347"
"2004-06-25 10:00",2.104,"Approved","OW347"
"2004-06-25 11:00",2.104,"Approved","OW347"
"2004-06-25 12:00",2.104,"Approved","OW347"
"2004-06-25 13:00",2.104,"Approved","OW347"
"2004-06-25 14:00",2.106,"Approved","OW347"
"2004-06-25 15:00",2.108,"Approved","OW347"
"2004-06-25 16:00",2.112,"Approved","OW347"
"2004-06-25 17:00",2.114,"Approved","OW347"
"2004-06-25 18:00",2.116,"Approved","OW347"
"2004-06-25 19:00",2.12,"Approved","OW347"
"2004-06-25 20:00",2.121,"Approved","OW347"
"2004-06-25 21:00",2.123,"Approved","OW347"
"2004-06-25 22:00",2.124,"Approved","OW347"
"2004-06-25 23:00",2.124,"Approved","OW347"
"2004-06-26 00:00",2.123,"Approved","OW347"
"2004-06-26 01:00",2.123,"Approved","OW347"
"2004-06-26 02:00",2.123,"Approved","OW347"
"2004-06-26 03:00",2.123,"Approved","OW347"
"2004-06-26 04:00",2.123,"Approved","OW347"
"2004-06-26 05:00",2.122,"Approved","OW347"
"2004-06-26 06:00",2.121,"Approved","OW347"
"2004-06-26 07:00",2.12,"Approved","OW347"
"2004-06-26 08:00",2.12,"Approved","OW347"
"2004-06-26 09:00",2.12,"Approved","OW347"
"2004-06-26 10:00",2.12,"Approved","OW347"
"2004-06-26 11:00",2.12,"Approved","OW347"
"2004-06-26 12:00",2.12,"Approved","OW347"
"2004-06-26 13:00",2.121,"Approved","OW347"
"2004-06-26 14:00",2.123,"Approved","OW347"
"2004-06-26 15:00",2.125,"Approved","OW347"
"2004-06-26 16:00",2.129,"Approved","OW347"
"2004-06-26 17:00",2.133,"Approved","OW347"
"2004-06-26 18:00",2.135,"Approved","OW347"
"2004-06-26 19:00",2.135,"Approved","OW347"
"2004-06-26 20:00",2.135,"Approved","OW347"
"2004-06-26 21:00",2.135,"Approved","OW347"
"2004-06-26 22:00",2.135,"Approved","OW347"
"2004-06-26 23:00",2.135,"Approved","OW347"
"2004-06-27 00:00",2.135,"Approved","OW347"
"2004-06-27 01:00",2.135,"Approved","OW347"
"2004-06-27 02:00",2.135,"Approved","OW347"
"2004-06-27 03:00",2.135,"Approved","OW347"
"2004-06-27 04:00",2.134,"Approved","OW347"
"2004-06-27 05:00",2.134,"Approved","OW347"
"2004-06-27 06:00",2.133,"Approved","OW347"
"2004-06-27 07:00",2.133,"Approved","OW347"
"2004-06-27 08:00",2.132,"Approved","OW347"
"2004-06-27 09:00",2.131,"Approved","OW347"
"2004-06-27 10:00",2.131,"Approved","OW347"
"2004-06-27 11:00",2.131,"Approved","OW347"
"2004-06-27 12:00",2.13,"Approved","OW347"
"2004-06-27 13:00",2.129,"Approved","OW347"
"2004-06-27 14:00",2.128,"Approved","OW347"
"2004-06-27 15:00",2.128,"Approved","OW347"
"2004-06-27 16:00",2.127,"Approved","OW347"
"2004-06-27 17:00",2.126,"Approved","OW347"
"2004-06-27 18:00",2.125,"Approved","OW347"
"2004-06-27 19:00",2.125,"Approved","OW347"
"2004-06-27 20:00",2.124,"Approved","OW347"
"2004-06-27 21:00",2.124,"Approved","OW347"
"2004-06-27 22:00",2.124,"Approved","OW347"
"2004-06-27 23:00",2.124,"Approved","OW347"
"2004-06-28 00:00",2.123,"Approved","OW347"
"2004-06-28 01:00",2.123,"Approved","OW347"
"2004-06-28 02:00",2.122,"Approved","OW347"
"2004-06-28 03:00",2.121,"Approved","OW347"
"2004-06-28 04:00",2.121,"Approved","OW347"
"2004-06-28 05:00",2.12,"Approved","OW347"
"2004-06-28 06:00",2.119,"Approved","OW347"
"2004-06-28 07:00",2.118,"Approved","OW347"
"2004-06-28 08:00",2.117,"Approved","OW347"
"2004-06-28 09:00",2.117,"Approved","OW347"
"2004-06-28 10:00",2.116,"Approved","OW347"
"2004-06-28 11:00",2.116,"Approved","OW347"
"2004-06-28 12:00",2.116,"Approved","OW347"
"2004-06-28 13:00",2.116,"Approved","OW347"
"2004-06-28 14:00",2.117,"Approved","OW347"
"2004-06-28 15:00",2.117,"Approved","OW347"
"2004-06-28 16:00",2.118,"Approved","OW347"
"2004-06-28 17:00",2.119,"Approved","OW347"
"2004-06-28 18:00",2.119,"Approved","OW347"
"2004-06-28 19:00",2.119,"Approved","OW347"
"2004-06-28 20:00",2.119,"Approved","OW347"
"2004-06-28 21:00",2.119,"Approved","OW347"
"2004-06-28 22:00",2.118,"Approved","OW347"
"2004-06-28 23:00",2.118,"Approved","OW347"
"2004-06-29 00:00",2.118,"Approved","OW347"
"2004-06-29 01:00",2.118,"Approved","OW347"
"2004-06-29 02:00",2.118,"Approved","OW347"
"2004-06-29 03:00",2.117,"Approved","OW347"
"2004-06-29 04:00",2.117,"Approved","OW347"
"2004-06-29 05:00",2.116,"Approved","OW347"
"2004-06-29 06:00",2.116,"Approved","OW347"
"2004-06-29 07:00",2.115,"Approved","OW347"
"2004-06-29 08:00",2.115,"Approved","OW347"
"2004-06-29 09:00",2.114,"Approved","OW347"
"2004-06-29 10:00",2.113,"Approved","OW347"
"2004-06-29 11:00",2.113,"Approved","OW347"
"2004-06-29 12:00",2.112,"Approved","OW347"
"2004-06-29 13:00",2.112,"Approved","OW347"
"2004-06-29 14:00",2.112,"Approved","OW347"
"2004-06-29 15:00",2.112,"Approved","OW347"
"2004-06-29 16:00",2.112,"Approved","OW347"
"2004-06-29 17:00",2.112,"Approved","OW347"
"2004-06-29 18:00",2.113,"Approved","OW347"
"2004-06-29 19:00",2.114,"Approved","OW347"
"2004-06-29 20:00",2.114,"Approved","OW347"
"2004-06-29 21:00",2.116,"Approved","OW347"
"2004-06-29 22:00",2.116,"Approved","OW347"
"2004-06-29 23:00",2.116,"Approved","OW347"
"2004-06-30 00:00",2.117,"Approved","OW347"
"2004-06-30 01:00",2.117,"Approved","OW347"
"2004-06-30 02:00",2.117,"Approved","OW347"
"2004-06-30 03:00",2.117,"Approved","OW347"
"2004-06-30 04:00",2.116,"Approved","OW347"
"2004-06-30 05:00",2.116,"Approved","OW347"
"2004-06-30 06:00",2.116,"Approved","OW347"
"2004-06-30 07:00",2.116,"Approved","OW347"
"2004-06-30 08:00",2.116,"Approved","OW347"
"2004-06-30 09:00",2.116,"Approved","OW347"
"2004-06-30 10:00",2.116,"Approved","OW347"
"2004-06-30 11:00",2.116,"Approved","OW347"
"2004-06-30 12:00",2.116,"Approved","OW347"
"2004-06-30 13:00",2.117,"Approved","OW347"
"2004-06-30 14:00",2.12,"Approved","OW347"
"2004-06-30 15:00",2.121,"Approved","OW347"
"2004-06-30 16:00",2.124,"Approved","OW347"
"2004-06-30 17:00",2.127,"Approved","OW347"
"2004-06-30 18:00",2.128,"Approved","OW347"
"2004-06-30 19:00",2.132,"Approved","OW347"
"2004-06-30 20:00",2.134,"Approved","OW347"
"2004-06-30 21:00",2.134,"Approved","OW347"
"2004-06-30 22:00",2.134,"Approved","OW347"
"2004-06-30 23:00",2.134,"Approved","OW347"
"2004-07-01 00:00",2.134,"Approved","OW347"
"2004-07-01 01:00",2.134,"Approved","OW347"
"2004-07-01 02:00",2.134,"Approved","OW347"
"2004-07-01 03:00",2.134,"Approved","OW347"
"2004-07-01 04:00",2.134,"Approved","OW347"
"2004-07-01 05:00",2.134,"Approved","OW347"
"2004-07-01 06:00",2.134,"Approved","OW347"
"2004-07-01 07:00",2.134,"Approved","OW347"
"2004-07-01 08:00",2.134,"Approved","OW347"
"2004-07-01 09:00",2.134,"Approved","OW347"
"2004-07-01 10:00",2.134,"Approved","OW347"
"2004-07-01 11:00",2.134,"Approved","OW347"
"2004-07-01 12:00",2.134,"Approved","OW347"
"2004-07-01 13:00",2.139,"Approved","OW347"
"2004-07-01 14:00",2.139,"Approved","OW347"
"2004-07-01 15:00",2.14,"Approved","OW347"
"2004-07-01 16:00",2.141,"Approved","OW347"
"2004-07-01 17:00",2.142,"Approved","OW347"
"2004-07-01 18:00",2.143,"Approved","OW347"
"2004-07-01 19:00",2.143,"Approved","OW347"
"2004-07-01 20:00",2.145,"Approved","OW347"
"2004-07-01 21:00",2.145,"Approved","OW347"
"2004-07-01 22:00",2.145,"Approved","OW347"
"2004-07-01 23:00",2.145,"Approved","OW347"
"2004-07-02 00:00",2.145,"Approved","OW347"
"2004-07-02 01:00",2.145,"Approved","OW347"
"2004-07-02 02:00",2.144,"Approved","OW347"
"2004-07-02 03:00",2.144,"Approved","OW347"
"2004-07-02 04:00",2.143,"Approved","OW347"
"2004-07-02 05:00",2.143,"Approved","OW347"
"2004-07-02 06:00",2.142,"Approved","OW347"
"2004-07-02 07:00",2.142,"Approved","OW347"
"2004-07-02 08:00",2.142,"Approved","OW347"
"2004-07-02 09:00",2.141,"Approved","OW347"
"2004-07-02 10:00",2.141,"Approved","OW347"
"2004-07-02 11:00",2.141,"Approved","OW347"
"2004-07-02 12:00",2.141,"Approved","OW347"
"2004-07-02 13:00",2.141,"Approved","OW347"
"2004-07-02 14:00",2.14,"Approved","OW347"
"2004-07-02 15:00",2.14,"Approved","OW347"
"2004-07-02 16:00",2.14,"Approved","OW347"
"2004-07-02 17:00",2.14,"Approved","OW347"
"2004-07-02 18:00",2.14,"Approved","OW347"
"2004-07-02 19:00",2.14,"Approved","OW347"
"2004-07-02 20:00",2.14,"Approved","OW347"
"2004-07-02 21:00",2.14,"Approved","OW347"
"2004-07-02 22:00",2.14,"Approved","OW347"
"2004-07-02 23:00",2.14,"Approved","OW347"
"2004-07-03 00:00",2.14,"Approved","OW347"
"2004-07-03 01:00",2.14,"Approved","OW347"
"2004-07-03 02:00",2.14,"Approved","OW347"
"2004-07-03 03:00",2.14,"Approved","OW347"
"2004-07-03 04:00",2.14,"Approved","OW347"
"2004-07-03 05:00",2.14,"Approved","OW347"
"2004-07-03 06:00",2.139,"Approved","OW347"
"2004-07-03 07:00",2.139,"Approved","OW347"
"2004-07-03 08:00",2.139,"Approved","OW347"
"2004-07-03 09:00",2.139,"Approved","OW347"
"2004-07-03 10:00",2.138,"Approved","OW347"
"2004-07-03 11:00",2.138,"Approved","OW347"
"2004-07-03 12:00",2.138,"Approved","OW347"
"2004-07-03 13:00",2.138,"Approved","OW347"
"2004-07-03 14:00",2.139,"Approved","OW347"
"2004-07-03 15:00",2.14,"Approved","OW347"
"2004-07-03 16:00",2.141,"Approved","OW347"
"2004-07-03 17:00",2.141,"Approved","OW347"
"2004-07-03 18:00",2.141,"Approved","OW347"
"2004-07-03 19:00",2.143,"Approved","OW347"
"2004-07-03 20:00",2.144,"Approved","OW347"
"2004-07-03 21:00",2.144,"Approved","OW347"
"2004-07-03 22:00",2.144,"Approved","OW347"
"2004-07-03 23:00",2.144,"Approved","OW347"
"2004-07-04 00:00",2.144,"Approved","OW347"
"2004-07-04 01:00",2.144,"Approved","OW347"
"2004-07-04 02:00",2.144,"Approved","OW347"
"2004-07-04 03:00",2.144,"Approved","OW347"
"2004-07-04 04:00",2.144,"Approved","OW347"
"2004-07-04 05:00",2.144,"Approved","OW347"
"2004-07-04 06:00",2.144,"Approved","OW347"
"2004-07-04 07:00",2.144,"Approved","OW347"
"2004-07-04 08:00",2.144,"Approved","OW347"
"2004-07-04 09:00",2.144,"Approved","OW347"
"2004-07-04 10:00",2.144,"Approved","OW347"
"2004-07-04 11:00",2.144,"Approved","OW347"
"2004-07-04 12:00",2.144,"Approved","OW347"
"2004-07-04 13:00",2.144,"Approved","OW347"
"2004-07-04 14:00",2.144,"Approved","OW347"
"2004-07-04 15:00",2.145,"Approved","OW347"
"2004-07-04 16:00",2.147,"Approved","OW347"
"2004-07-04 17:00",2.149,"Approved","OW347"
"2004-07-04 18:00",2.15,"Approved","OW347"
"2004-07-04 19:00",2.152,"Approved","OW347"
"2004-07-04 20:00",2.152,"Approved","OW347"
"2004-07-04 21:00",2.152,"Approved","OW347"
"2004-07-04 22:00",2.152,"Approved","OW347"
"2004-07-04 23:00",2.152,"Approved","OW347"
"2004-07-05 00:00",2.152,"Approved","OW347"
"2004-07-05 01:00",2.152,"Approved","OW347"
"2004-07-05 02:00",2.152,"Approved","OW347"
"2004-07-05 03:00",2.152,"Approved","OW347"
"2004-07-05 04:00",2.152,"Approved","OW347"
"2004-07-05 05:00",2.152,"Approved","OW347"
"2004-07-05 06:00",2.151,"Approved","OW347"
"2004-07-05 07:00",2.151,"Approved","OW347"
"2004-07-05 08:00",2.151,"Approved","OW347"
"2004-07-05 09:00",2.151,"Approved","OW347"
"2004-07-05 10:00",2.151,"Approved","OW347"
"2004-07-05 11:00",2.151,"Approved","OW347"
"2004-07-05 12:00",2.151,"Approved","OW347"
"2004-07-05 13:00",2.151,"Approved","OW347"
"2004-07-05 14:00",2.152,"Approved","OW347"
"2004-07-05 15:00",2.152,"Approved","OW347"
"2004-07-05 16:00",2.16,"Approved","OW347"
"2004-07-05 17:00",2.162,"Approved","OW347"
"2004-07-05 18:00",2.163,"Approved","OW347"
"2004-07-05 19:00",2.164,"Approved","OW347"
"2004-07-05 20:00",2.164,"Approved","OW347"
"2004-07-05 21:00",2.164,"Approved","OW347"
"2004-07-05 22:00",2.164,"Approved","OW347"
"2004-07-05 23:00",2.164,"Approved","OW347"
"2004-07-06 00:00",2.163,"Approved","OW347"
"2004-07-06 01:00",2.162,"Approved","OW347"
"2004-07-06 02:00",2.162,"Approved","OW347"
"2004-07-06 03:00",2.162,"Approved","OW347"
"2004-07-06 04:00",2.161,"Approved","OW347"
"2004-07-06 05:00",2.161,"Approved","OW347"
"2004-07-06 06:00",2.16,"Approved","OW347"
"2004-07-06 07:00",2.16,"Approved","OW347"
"2004-07-06 08:00",2.16,"Approved","OW347"
"2004-07-06 09:00",2.16,"Approved","OW347"
"2004-07-06 10:00",2.16,"Approved","OW347"
"2004-07-06 11:00",2.16,"Approved","OW347"
"2004-07-06 12:00",2.16,"Approved","OW347"
"2004-07-06 13:00",2.162,"Approved","OW347"
"2004-07-06 14:00",2.164,"Approved","OW347"
"2004-07-06 15:00",2.167,"Approved","OW347"
"2004-07-06 16:00",2.169,"Approved","OW347"
"2004-07-06 17:00",2.171,"Approved","OW347"
"2004-07-06 18:00",2.172,"Approved","OW347"
"2004-07-06 19:00",2.172,"Approved","OW347"
"2004-07-06 20:00",2.172,"Approved","OW347"
"2004-07-06 21:00",2.172,"Approved","OW347"
"2004-07-06 22:00",2.172,"Approved","OW347"
"2004-07-06 23:00",2.172,"Approved","OW347"
"2004-07-07 00:00",2.172,"Approved","OW347"
"2004-07-07 01:00",2.172,"Approved","OW347"
"2004-07-07 02:00",2.172,"Approved","OW347"
"2004-07-07 03:00",2.172,"Approved","OW347"
"2004-07-07 04:00",2.172,"Approved","OW347"
"2004-07-07 05:00",2.171,"Approved","OW347"
"2004-07-07 06:00",2.171,"Approved","OW347"
"2004-07-07 07:00",2.171,"Approved","OW347"
"2004-07-07 08:00",2.171,"Approved","OW347"
"2004-07-07 09:00",2.171,"Approved","OW347"
"2004-07-07 10:00",2.171,"Approved","OW347"
"2004-07-07 11:00",2.171,"Approved","OW347"
"2004-07-07 12:00",2.171,"Approved","OW347"
"2004-07-07 13:00",2.172,"Approved","OW347"
"2004-07-07 14:00",2.174,"Approved","OW347"
"2004-07-07 15:00",2.174,"Approved","OW347"
"2004-07-07 16:00",2.177,"Approved","OW347"
"2004-07-07 17:00",2.178,"Approved","OW347"
"2004-07-07 18:00",2.178,"Approved","OW347"
"2004-07-07 19:00",2.178,"Approved","OW347"
"2004-07-07 20:00",2.178,"Approved","OW347"
"2004-07-07 21:00",2.178,"Approved","OW347"
"2004-07-07 22:00",2.178,"Approved","OW347"
"2004-07-07 23:00",2.178,"Approved","OW347"
"2004-07-08 00:00",2.178,"Approved","OW347"
"2004-07-08 01:00",2.178,"Approved","OW347"
"2004-07-08 02:00",2.178,"Approved","OW347"
"2004-07-08 03:00",2.178,"Approved","OW347"
"2004-07-08 04:00",2.178,"Approved","OW347"
"2004-07-08 05:00",2.178,"Approved","OW347"
"2004-07-08 06:00",2.177,"Approved","OW347"
"2004-07-08 07:00",2.177,"Approved","OW347"
"2004-07-08 08:00",2.177,"Approved","OW347"
"2004-07-08 09:00",2.177,"Approved","OW347"
"2004-07-08 10:00",2.177,"Approved","OW347"
"2004-07-08 11:00",2.177,"Approved","OW347"
"2004-07-08 12:00",2.177,"Approved","OW347"
"2004-07-08 13:00",2.177,"Approved","OW347"
"2004-07-08 14:00",2.178,"Approved","OW347"
"2004-07-08 15:00",2.179,"Approved","OW347"
"2004-07-08 16:00",2.18,"Approved","OW347"
"2004-07-08 17:00",2.183,"Approved","OW347"
"2004-07-08 18:00",2.183,"Approved","OW347"
"2004-07-08 19:00",2.183,"Approved","OW347"
"2004-07-08 20:00",2.183,"Approved","OW347"
"2004-07-08 21:00",2.183,"Approved","OW347"
"2004-07-08 22:00",2.183,"Approved","OW347"
"2004-07-08 23:00",2.183,"Approved","OW347"
"2004-07-09 00:00",2.183,"Approved","OW347"
"2004-07-09 01:00",2.183,"Approved","OW347"
"2004-07-09 02:00",2.183,"Approved","OW347"
"2004-07-09 03:00",2.183,"Approved","OW347"
"2004-07-09 04:00",2.183,"Approved","OW347"
"2004-07-09 05:00",2.183,"Approved","OW347"
"2004-07-09 06:00",2.183,"Approved","OW347"
"2004-07-09 07:00",2.183,"Approved","OW347"
"2004-07-09 08:00",2.183,"Approved","OW347"
"2004-07-09 09:00",2.183,"Approved","OW347"
"2004-07-09 10:00",2.183,"Approved","OW347"
"2004-07-09 11:00",2.183,"Approved","OW347"
"2004-07-09 12:00",2.183,"Approved","OW347"
"2004-07-09 13:00",2.183,"Approved","OW347"
"2004-07-09 14:00",2.183,"Approved","OW347"
"2004-07-09 15:00",2.183,"Approved","OW347"
"2004-07-09 16:00",2.183,"Approved","OW347"
"2004-07-09 17:00",2.183,"Approved","OW347"
"2004-07-09 18:00",2.183,"Approved","OW347"
"2004-07-09 19:00",2.186,"Approved","OW347"
"2004-07-09 20:00",2.187,"Approved","OW347"
"2004-07-09 21:00",2.187,"Approved","OW347"
"2004-07-09 22:00",2.187,"Approved","OW347"
"2004-07-09 23:00",2.187,"Approved","OW347"
"2004-07-10 00:00",2.187,"Approved","OW347"
"2004-07-10 01:00",2.187,"Approved","OW347"
"2004-07-10 02:00",2.187,"Approved","OW347"
"2004-07-10 03:00",2.187,"Approved","OW347"
"2004-07-10 04:00",2.187,"Approved","OW347"
"2004-07-10 05:00",2.187,"Approved","OW347"
"2004-07-10 06:00",2.187,"Approved","OW347"
"2004-07-10 07:00",2.186,"Approved","OW347"
"2004-07-10 08:00",2.186,"Approved","OW347"
"2004-07-10 09:00",2.186,"Approved","OW347"
"2004-07-10 10:00",2.186,"Approved","OW347"
"2004-07-10 11:00",2.186,"Approved","OW347"
"2004-07-10 12:00",2.186,"Approved","OW347"
"2004-07-10 13:00",2.186,"Approved","OW347"
"2004-07-10 14:00",2.186,"Approved","OW347"
"2004-07-10 15:00",2.187,"Approved","OW347"
"2004-07-10 16:00",2.187,"Approved","OW347"
"2004-07-10 17:00",2.187,"Approved","OW347"
"2004-07-10 18:00",2.193,"Approved","OW347"
"2004-07-10 19:00",2.195,"Approved","OW347"
"2004-07-10 20:00",2.196,"Approved","OW347"
"2004-07-10 21:00",2.197,"Approved","OW347"
"2004-07-10 22:00",2.197,"Approved","OW347"
"2004-07-10 23:00",2.197,"Approved","OW347"
"2004-07-11 00:00",2.196,"Approved","OW347"
"2004-07-11 01:00",2.196,"Approved","OW347"
"2004-07-11 02:00",2.196,"Approved","OW347"
"2004-07-11 03:00",2.196,"Approved","OW347"
"2004-07-11 04:00",2.196,"Approved","OW347"
"2004-07-11 05:00",2.196,"Approved","OW347"
"2004-07-11 06:00",2.195,"Approved","OW347"
"2004-07-11 07:00",2.195,"Approved","OW347"
"2004-07-11 08:00",2.194,"Approved","OW347"
"2004-07-11 09:00",2.194,"Approved","OW347"
"2004-07-11 10:00",2.194,"Approved","OW347"
"2004-07-11 11:00",2.194,"Approved","OW347"
"2004-07-11 12:00",2.194,"Approved","OW347"
"2004-07-11 13:00",2.194,"Approved","OW347"
"2004-07-11 14:00",2.194,"Approved","OW347"
"2004-07-11 15:00",2.194,"Approved","OW347"
"2004-07-11 16:00",2.196,"Approved","OW347"
"2004-07-11 17:00",2.196,"Approved","OW347"
"2004-07-11 18:00",2.199,"Approved","OW347"
"2004-07-11 19:00",2.199,"Approved","OW347"
"2004-07-11 20:00",2.199,"Approved","OW347"
"2004-07-11 21:00",2.199,"Approved","OW347"
"2004-07-11 22:00",2.199,"Approved","OW347"
"2004-07-11 23:00",2.199,"Approved","OW347"
"2004-07-12 00:00",2.199,"Approved","OW347"
"2004-07-12 01:00",2.199,"Approved","OW347"
"2004-07-12 02:00",2.199,"Approved","OW347"
"2004-07-12 03:00",2.199,"Approved","OW347"
"2004-07-12 04:00",2.199,"Approved","OW347"
"2004-07-12 05:00",2.199,"Approved","OW347"
"2004-07-12 06:00",2.199,"Approved","OW347"
"2004-07-12 07:00",2.199,"Approved","OW347"
"2004-07-12 08:00",2.199,"Approved","OW347"
"2004-07-12 09:00",2.199,"Approved","OW347"
"2004-07-12 10:00",2.199,"Approved","OW347"
"2004-07-12 11:00",2.199,"Approved","OW347"
"2004-07-12 12:00",2.199,"Approved","OW347"
"2004-07-12 13:00",2.199,"Approved","OW347"
"2004-07-12 14:00",2.204,"Approved","OW347"
"2004-07-12 15:00",2.205,"Approved","OW347"